GEOSCAN 5 (RS92S5)

Last updated on Thu Oct 30 2025 00:03:11 GMT+0000 (Coordinated Universal Time)

1 64891U 25155R 25302.46420437 .00018898 00000+0 75332-3 0 9994 2 64891 97.4281 266.6421 0004425 290.9046 69.1718 15.25243349 45552
UTC large
Height (km)
Speed (km/s)
/
Latitude / Longitude
Inclination (degrees)
Orbital Period (minutes)
Azimuth
Elevation
Range (km)
Doppler Factor

Next 0 passes for location: London (51.5072 / 0.1276)

Sorry there are no passes over London.